Location: Devore Heights
(34.2372°N, 117.4156°W)
Time: 18:22:06
(UTC+00:00)

deb Explorer IX - Pass Details

Date: 14 September 2024
Orbit: 502 x 816 km, 38.7° (Epoch: 15 October)

Event Time Altitude Azimuth Distance (km) Brightness Sun altitude
Rises 10:16:48 0° 283° (WNW) 3,197 - -38.3°
Reaches altitude 10° 10:19:49 10° 269° (W) 2,202 - -37.9°
Maximum altitude 10:23:45 22° 218° (SW) 1,442 - -37.2°
Drops below altitude 10° 10:27:24 10° 167° (SSE) 2,009 - -36.6°
Sets 10:30:00 0° 152° (SSE) 2,846 - -36.2°
